This is the latest recevied weather packets stored in our database for station/object K5VW. If no packets are shown the sender has not sent any weather packets the latest 10 day(s).
| Time | Temp. | Humidity | Pressure | Rain* | Wind** | Luminosity | Snow |
|---|---|---|---|---|---|---|---|
| 1777741603 | 16.67° C | 47% | 1022.6 hPa | 0 mm | - | - | - |
| 1777741534 | 16.67° C | 47% | 1022.6 hPa | 0 mm | - | - | - |
| 1777741477 | 16.67° C | 47% | 1022.6 hPa | 0 mm | - | - | - |
| 1777741413 | 16.67° C | 47% | 1022.6 hPa | 0 mm | - | - | - |
| 1777741352 | 16.67° C | 47% | 1022.6 hPa | 0 mm | - | - | - |
| 1777741293 | 16.67° C | 47% | 1022.6 hPa | 0 mm | - | - | - |
| 1777741238 | 16.67° C | 46% | 1022.6 hPa | 0 mm | - | - | - |
| 1777741167 | 16.67° C | 46% | 1022.6 hPa | 0 mm | - | - | - |
| 1777741108 | 16.67° C | 47% | 1022.6 hPa | 0 mm | - | - | - |
| 1777741041 | 16.67° C | 47% | 1022.8 hPa | 0 mm | - | - | - |
| 1777740980 | 16.11° C | 48% | 1022.7 hPa | 0 mm | - | - | - |
| 1777740916 | 16.11° C | 48% | 1022.7 hPa | 0 mm | - | - | - |
| 1777740854 | 16.11° C | 50% | 1022.7 hPa | 0 mm | - | - | - |
| 1777740793 | 16.11° C | 50% | 1022.7 hPa | 0 mm | - | - | - |
| 1777740732 | 16.11° C | 48% | 1022.7 hPa | 0 mm | - | - | - |
| 1777740669 | 16.11° C | 48% | 1022.7 hPa | 0 mm | - | - | - |
| 1777740609 | 16.11° C | 47% | 1022.7 hPa | 0 mm | - | - | - |
| 1777740557 | 16.11° C | 47% | 1022.7 hPa | 0 mm | - | - | - |
| 1777740491 | 16.11° C | 50% | 1022.7 hPa | 0 mm | - | - | - |
| 1777740428 | 16.11° C | 49% | 1022.7 hPa | 0 mm | - | - | - |
| 1777740369 | 16.67° C | 49% | 1022.8 hPa | 0 mm | - | - | - |
| 1777740308 | 16.67° C | 51% | 1023 hPa | 0 mm | - | - | - |
| 1777740239 | 16.67° C | 51% | 1022.8 hPa | 0 mm | - | - | - |
| 1777740175 | 16.67° C | 52% | 1022.8 hPa | 0 mm | - | - | - |
| 1777740114 | 16.11° C | 55% | 1023 hPa | 0 mm | - | - | - |
* Rain latest hour (hover to see other rain measurements)
** Current wind speed in m/s (hover to see current wind gust speed)